| time (UTC) | temp F | wind direction | speed MPH | gust MPH | rain 1hr in | rain 24hr in | rain mn in | humidity % | barometer mb |
| 20260831095044 | 77 | 226 | 0.0 | 0.0 | 0.00 | 0.00 | 0.00 | 93 | 1019.2 |
| 20260831094540 | 77 | 226 | 0.0 | 0.0 | 0.00 | 0.00 | 0.00 | 93 | 1019.3 |
| 20260831094036 | 77 | 226 | 0.0 | 0.0 | 0.00 | 0.00 | 0.00 | 93 | 1019.2 |
| 20260831093531 | 77 | 226 | 0.0 | 0.0 | 0.00 | 0.00 | 0.00 | 93 | 1019.5 |
| 20260831093027 | 77 | 226 | 0.0 | 0.0 | 0.00 | 0.00 | 0.00 | 93 | 1019.5 |
| 20260831092523 | 77 | 223 | 0.0 | 0.0 | 0.00 | 0.00 | 0.00 | 92 | 1019.1 |
| 20260831092019 | 77 | 223 | 0.0 | 0.0 | 0.00 | 0.00 | 0.00 | 92 | 1019.1 |
| 20260831091513 | 0 | 0.0 | 0.0 | 0.00 | 0.00 | 0.00 | 1019.2 | ||
| 20260831091009 | 0 | 0.0 | 0.0 | 0.00 | 0.00 | 0.00 | 1019.2 | ||
| 20260831090504 | 0 | 0.0 | 0.0 | 0.00 | 0.00 | 0.00 | 1019.3 | ||
| 20260831090000 | 0 | 0.0 | 0.0 | 0.00 | 0.00 | 0.00 | 1019.3 | ||
| 20260831085455 | 0 | 0.0 | 0.0 | 0.00 | 0.00 | 0.00 | 1019.3 | ||
| 20260831084954 | 78 | 199 | 2.0 | 3.0 | 0.00 | 0.00 | 0.00 | 89 | 1019.0 |
| 20260831084451 | 78 | 199 | 2.0 | 3.0 | 0.00 | 0.00 | 0.00 | 89 | 1019.3 |
| 20260831083948 | 78 | 199 | 2.0 | 3.0 | 0.00 | 0.00 | 0.00 | 89 | 1019.3 |
| 20260831083442 | 78 | 209 | 0.0 | 1.0 | 0.00 | 0.00 | 0.00 | 88 | 1019.4 |
| 20260831082942 | 0 | 0.0 | 0.0 | 0.00 | 0.00 | 0.00 | 1019.3 | ||
| 20260831082443 | 0 | 0.0 | 0.0 | 0.00 | 0.00 | 0.00 | 1019.1 | ||
| 20260831081936 | 78 | 218 | 0.0 | 0.0 | 0.00 | 0.00 | 0.00 | 86 | 1019.1 |
| 20260831081432 | 78 | 218 | 0.0 | 0.0 | 0.00 | 0.00 | 0.00 | 86 | 1019.3 |
| 20260831080928 | 78 | 218 | 0.0 | 0.0 | 0.00 | 0.00 | 0.00 | 86 | 1019.1 |
| 20260831080423 | 79 | 207 | 1.0 | 1.0 | 0.00 | 0.00 | 0.00 | 85 | 1019.0 |
| 20260831075919 | 79 | 207 | 1.0 | 1.0 | 0.00 | 0.00 | 0.00 | 85 | 1019.2 |
| 20260831075414 | 79 | 207 | 1.0 | 1.0 | 0.00 | 0.00 | 0.00 | 85 | 1019.1 |
| 20260831074909 | 0 | 0.0 | 0.0 | 0.00 | 0.00 | 0.00 | 1019.2 | ||
| 20260831074408 | 80 | 226 | 0.0 | 0.0 | 0.00 | 0.00 | 0.00 | 83 | 1019.1 |
| 20260831073903 | 80 | 226 | 0.0 | 0.0 | 0.00 | 0.00 | 0.00 | 83 | 1019.4 |
| 20260831073403 | 80 | 226 | 0.0 | 0.0 | 0.00 | 0.00 | 0.00 | 83 | 1019.1 |
| 20260831072857 | 0 | 0.0 | 0.0 | 0.00 | 0.00 | 0.00 | 1019.2 | ||
| 20260831072353 | 80 | 207 | 0.0 | 1.0 | 0.00 | 0.00 | 0.00 | 82 | 1019.4 |
| 20260831071849 | 80 | 207 | 0.0 | 1.0 | 0.00 | 0.00 | 0.00 | 82 | 1019.3 |
| 20260831071348 | 80 | 176 | 2.0 | 2.0 | 0.00 | 0.00 | 0.00 | 81 | 1019.2 |
| 20260831070843 | 80 | 176 | 2.0 | 2.0 | 0.00 | 0.00 | 0.00 | 81 | 1019.1 |
| 20260831070342 | 0 | 0.0 | 0.0 | 0.00 | 0.00 | 0.00 | 1019.3 | ||
| 20260831065842 | 0 | 0.0 | 0.0 | 0.00 | 0.00 | 0.00 | 1019.3 | ||
| 20260831065339 | 81 | 207 | 2.0 | 3.0 | 0.00 | 0.00 | 0.00 | 79 | 1019.2 |
| 20260831064835 | 81 | 207 | 2.0 | 3.0 | 0.00 | 0.00 | 0.00 | 79 | 1019.3 |
| 20260831064330 | 81 | 207 | 2.0 | 3.0 | 0.00 | 0.00 | 0.00 | 79 | 1019.4 |
| 20260831063826 | 0 | 0.0 | 0.0 | 0.00 | 0.00 | 0.00 | 1019.2 | ||
| 20260831063326 | 0 | 0.0 | 0.0 | 0.00 | 0.00 | 0.00 | 1019.3 | ||
| 20260831062821 | 0 | 0.0 | 0.0 | 0.00 | 0.00 | 0.00 | 1019.3 | ||
| 20260831062316 | 0 | 0.0 | 0.0 | 0.00 | 0.00 | 0.00 | 1019.4 | ||
| 20260831061815 | 83 | 228 | 3.0 | 3.0 | 0.00 | 0.00 | 0.00 | 76 | 1019.2 |
| 20260831061314 | 83 | 228 | 3.0 | 3.0 | 0.00 | 0.00 | 0.00 | 76 | 1019.4 |
| 20260831060811 | 83 | 228 | 3.0 | 3.0 | 0.00 | 0.00 | 0.00 | 76 | 1019.2 |
| 20260831060310 | 83 | 170 | 5.0 | 8.0 | 0.00 | 0.00 | 0.00 | 75 | 1019.2 |
| 20260831055810 | 83 | 170 | 5.0 | 8.0 | 0.00 | 0.00 | 0.00 | 75 | 1019.0 |
| 20260831055306 | 83 | 170 | 5.0 | 8.0 | 0.00 | 0.00 | 0.00 | 75 | 1019.0 |
| 20260831054800 | 83 | 214 | 4.0 | 7.0 | 0.00 | 0.00 | 0.00 | 75 | 1019.0 |
| 20260831054255 | 0 | 0.0 | 0.0 | 0.00 | 0.00 | 0.00 | 1018.9 | ||
| 20260831053754 | 0 | 0.0 | 0.0 | 0.00 | 0.00 | 0.00 | 1019.0 | ||
| 20260831053253 | 0 | 0.0 | 0.0 | 0.00 | 0.00 | 0.00 | 1018.8 | ||
| 20260831052747 | 84 | 155 | 5.0 | 7.0 | 0.00 | 0.00 | 0.00 | 75 | 1018.7 |
| 20260831052247 | 84 | 155 | 5.0 | 7.0 | 0.00 | 0.00 | 0.00 | 75 | 1018.6 |
| 20260831051744 | 84 | 184 | 3.0 | 5.0 | 0.00 | 0.00 | 0.00 | 75 | 1018.6 |
| 20260831051244 | 0 | 0.0 | 0.0 | 0.00 | 0.00 | 0.00 | 1018.5 | ||
| 20260831050739 | 0 | 0.0 | 0.0 | 0.00 | 0.00 | 0.00 | 1018.8 | ||
| 20260831050237 | 0 | 0.0 | 0.0 | 0.00 | 0.00 | 0.00 | 1018.7 | ||
| 20260831045733 | 0 | 0.0 | 0.0 | 0.00 | 0.00 | 0.00 | 1018.7 | ||
| 20260831045233 | 0 | 0.0 | 0.0 | 0.00 | 0.00 | 0.00 | 1018.5 | ||
| 20260831044727 | 86 | 222 | 4.0 | 6.0 | 0.00 | 0.00 | 0.00 | 70 | 1018.5 |
| 20260831044223 | 86 | 222 | 4.0 | 6.0 | 0.00 | 0.00 | 0.00 | 70 | 1018.5 |
| 20260831043719 | 86 | 222 | 4.0 | 6.0 | 0.00 | 0.00 | 0.00 | 70 | 1018.4 |
| 20260831043214 | 0 | 0.0 | 0.0 | 0.00 | 0.00 | 0.00 | 1018.5 | ||
| 20260831042713 | 86 | 190 | 7.0 | 8.0 | 0.00 | 0.00 | 0.00 | 68 | 1018.3 |
| 20260831042208 | 86 | 190 | 7.0 | 8.0 | 0.00 | 0.00 | 0.00 | 68 | 1018.6 |
| 20260831041703 | 86 | 190 | 7.0 | 8.0 | 0.00 | 0.00 | 0.00 | 68 | 1018.4 |
| 20260831041202 | 0 | 0.0 | 0.0 | 0.00 | 0.00 | 0.00 | 1018.3 | ||
| 20260831040657 | 0 | 0.0 | 0.0 | 0.00 | 0.00 | 0.00 | 1018.6 | ||
| 20260831040156 | 0 | 0.0 | 0.0 | 0.00 | 0.00 | 0.00 | 1018.6 | ||
| 20260831035655 | 0 | 0.0 | 0.0 | 0.00 | 0.00 | 0.00 | 1018.5 | ||
| 20260831035150 | 0 | 0.0 | 0.0 | 0.00 | 0.00 | 0.00 | 1018.3 | ||
| 20260831034648 | 0 | 0.0 | 0.0 | 0.00 | 0.00 | 0.00 | 1018.5 | ||
| 20260831034144 | 88 | 171 | 3.0 | 3.0 | 0.00 | 0.00 | 0.00 | 63 | 1018.2 |
| 20260831033640 | 88 | 171 | 3.0 | 3.0 | 0.00 | 0.00 | 0.00 | 63 | 1018.3 |
| 20260831033134 | 88 | 171 | 3.0 | 3.0 | 0.00 | 0.00 | 0.00 | 63 | 1018.1 |
| 20260831032629 | 0 | 0.0 | 0.0 | 0.00 | 0.00 | 0.00 | 1018.2 | ||
| 20260831032125 | 0 | 0.0 | 0.0 | 0.00 | 0.00 | 0.00 | 1018.0 | ||
| 20260831031624 | 0 | 0.0 | 0.0 | 0.00 | 0.00 | 0.00 | 1017.9 | ||
| 20260831031124 | 0 | 0.0 | 0.0 | 0.00 | 0.00 | 0.00 | 1017.9 | ||
| 20260831030622 | 0 | 0.0 | 0.0 | 0.00 | 0.00 | 0.00 | 1017.8 | ||
| 20260831030122 | 89 | 183 | 6.0 | 8.0 | 0.00 | 0.00 | 0.00 | 59 | 1017.8 |
| 20260831025620 | 89 | 183 | 6.0 | 8.0 | 0.00 | 0.00 | 0.00 | 59 | 1017.8 |
| 20260831025115 | 89 | 183 | 6.0 | 8.0 | 0.00 | 0.00 | 0.00 | 59 | 1017.5 |
| 20260831024612 | 89 | 195 | 5.0 | 7.0 | 0.00 | 0.00 | 0.00 | 59 | 1017.4 |
| 20260831024110 | 0 | 0.0 | 0.0 | 0.00 | 0.00 | 0.00 | 1017.3 | ||
| 20260831023609 | 0 | 0.0 | 0.0 | 0.00 | 0.00 | 0.00 | 1017.3 | ||
| 20260831023108 | 89 | 180 | 3.0 | 5.0 | 0.00 | 0.00 | 0.00 | 53 | 1017.0 |
| 20260831022603 | 89 | 180 | 3.0 | 5.0 | 0.00 | 0.00 | 0.00 | 53 | 1017.3 |
| 20260831022058 | 89 | 180 | 3.0 | 5.0 | 0.00 | 0.00 | 0.00 | 53 | 1016.8 |
| 20260831021556 | 89 | 173 | 4.0 | 5.0 | 0.00 | 0.00 | 0.00 | 54 | 1017.0 |
| 20260831021052 | 89 | 175 | 3.0 | 3.0 | 0.00 | 0.00 | 0.00 | 54 | 1016.6 |
| 20260831020547 | 88 | 199 | 0.0 | 0.0 | 0.00 | 0.00 | 0.00 | 57 | 1016.5 |
| 20260831020037 | 0 | 0.0 | 0.0 | 0.00 | 0.00 | 0.00 | 1016.5 | ||
| 20260831015533 | 0 | 0.0 | 0.0 | 0.00 | 0.00 | 0.00 | 1016.7 | ||
| 20260831015027 | 0 | 0.0 | 0.0 | 0.00 | 0.00 | 0.00 | 1016.4 | ||
| 20260831014522 | 0 | 0.0 | 0.0 | 0.00 | 0.00 | 0.00 | 1016.4 | ||
| 20260831014018 | 0 | 0.0 | 0.0 | 0.00 | 0.00 | 0.00 | 1016.3 | ||
| 20260831013514 | 0 | 0.0 | 0.0 | 0.00 | 0.00 | 0.00 | 1016.3 | ||
| 20260831013008 | 0 | 0.0 | 0.0 | 0.00 | 0.00 | 0.00 | 1016.1 | ||
| 20260831012503 | 92 | 203 | 1.0 | 1.0 | 0.00 | 0.00 | 0.00 | 49 | 1016.0 |
| 20260831012002 | 92 | 203 | 1.0 | 1.0 | 0.00 | 0.00 | 0.00 | 49 | 1016.1 |
| 20260831011457 | 92 | 203 | 1.0 | 1.0 | 0.00 | 0.00 | 0.00 | 49 | 1016.1 |
| 20260831010953 | 93 | 219 | 1.0 | 1.0 | 0.00 | 0.00 | 0.00 | 49 | 1016.0 |
| 20260831010453 | 93 | 196 | 2.0 | 3.0 | 0.00 | 0.00 | 0.00 | 48 | 1015.9 |
| 20260831005949 | 93 | 201 | 2.0 | 2.0 | 0.00 | 0.00 | 0.00 | 48 | 1016.1 |
| 20260831005444 | 94 | 181 | 2.0 | 3.0 | 0.00 | 0.00 | 0.00 | 47 | 1016.0 |
| 20260831004943 | 94 | 163 | 2.0 | 2.0 | 0.00 | 0.00 | 0.00 | 47 | 1016.0 |
| 20260831004440 | 94 | 188 | 6.0 | 8.0 | 0.00 | 0.00 | 0.00 | 46 | 1015.9 |
| 20260831003936 | 94 | 192 | 3.0 | 5.0 | 0.00 | 0.00 | 0.00 | 46 | 1016.2 |
| 20260831003431 | 95 | 183 | 2.0 | 3.0 | 0.00 | 0.00 | 0.00 | 46 | 1015.7 |
| 20260831002931 | 95 | 210 | 1.0 | 1.0 | 0.00 | 0.00 | 0.00 | 46 | 1015.7 |
| 20260831002430 | 94 | 177 | 4.0 | 6.0 | 0.00 | 0.00 | 0.00 | 45 | 1016.1 |
| 20260831001926 | 93 | 201 | 3.0 | 3.0 | 0.00 | 0.00 | 0.00 | 46 | 1016.0 |
| 20260831001421 | 93 | 231 | 0.0 | 0.0 | 0.00 | 0.00 | 0.00 | 47 | 1015.8 |
| 20260831000918 | 94 | 208 | 1.0 | 1.0 | 0.00 | 0.00 | 0.00 | 45 | 1016.1 |
| 20260831000414 | 95 | 209 | 0.0 | 1.0 | 0.00 | 0.00 | 0.00 | 45 | 1015.8 |
| 20260830235912 | 95 | 208 | 2.0 | 2.0 | 0.00 | 0.00 | 0.00 | 44 | 1015.9 |
| 20260830235407 | 95 | 171 | 2.0 | 2.0 | 0.00 | 0.00 | 0.00 | 44 | 1015.9 |
| 20260830234902 | 95 | 208 | 3.0 | 3.0 | 0.00 | 0.00 | 0.00 | 44 | 1015.9 |
| 20260830234357 | 95 | 195 | 1.0 | 2.0 | 0.00 | 0.00 | 0.00 | 43 | 1016.1 |
| 20260830233854 | 95 | 217 | 2.0 | 3.0 | 0.00 | 0.00 | 0.00 | 44 | 1016.0 |
| 20260830233348 | 96 | 213 | 1.0 | 2.0 | 0.00 | 0.00 | 0.00 | 44 | 1016.0 |
| 20260830232844 | 96 | 136 | 5.0 | 6.0 | 0.00 | 0.00 | 0.00 | 42 | 1016.0 |
| 20260830232339 | 97 | 205 | 3.0 | 5.0 | 0.00 | 0.00 | 0.00 | 42 | 1015.9 |
| 20260830231836 | 97 | 184 | 3.0 | 3.0 | 0.00 | 0.00 | 0.00 | 43 | 1016.1 |
| 20260830231331 | 97 | 181 | 5.0 | 7.0 | 0.00 | 0.00 | 0.00 | 42 | 1016.1 |
| 20260830230830 | 96 | 195 | 2.0 | 2.0 | 0.00 | 0.00 | 0.00 | 43 | 1016.0 |
| 20260830230326 | 97 | 192 | 5.0 | 6.0 | 0.00 | 0.00 | 0.00 | 42 | 1016.3 |
| 20260830225825 | 97 | 159 | 3.0 | 5.0 | 0.00 | 0.00 | 0.00 | 42 | 1016.0 |
| 20260830225320 | 97 | 194 | 4.0 | 7.0 | 0.00 | 0.00 | 0.00 | 43 | 1015.9 |
| 20260830224815 | 97 | 152 | 5.0 | 6.0 | 0.00 | 0.00 | 0.00 | 43 | 1016.1 |
| 20260830224309 | 97 | 199 | 2.0 | 2.0 | 0.00 | 0.00 | 0.00 | 43 | 1016.2 |
| 20260830223806 | 98 | 190 | 3.0 | 6.0 | 0.00 | 0.00 | 0.00 | 42 | 1016.2 |
| 20260830223302 | 97 | 208 | 0.0 | 1.0 | 0.00 | 0.00 | 0.00 | 42 | 1016.2 |
| 20260830222755 | 98 | 113 | 4.0 | 7.0 | 0.00 | 0.00 | 0.00 | 42 | 1016.1 |
| 20260830222251 | 97 | 207 | 1.0 | 2.0 | 0.00 | 0.00 | 0.00 | 43 | 1016.3 |
| 20260830221746 | 98 | 194 | 5.0 | 6.0 | 0.00 | 0.00 | 0.00 | 42 | 1016.2 |
| 20260830221244 | 97 | 212 | 3.0 | 5.0 | 0.00 | 0.00 | 0.00 | 43 | 1016.3 |
| 20260830220743 | 97 | 217 | 0.0 | 0.0 | 0.00 | 0.00 | 0.00 | 43 | 1016.4 |
| 20260830220243 | 97 | 220 | 3.0 | 3.0 | 0.00 | 0.00 | 0.00 | 42 | 1016.5 |
| 20260830215741 | 96 | 182 | 4.0 | 5.0 | 0.00 | 0.00 | 0.00 | 44 | 1016.3 |
| 20260830215236 | 97 | 211 | 4.0 | 5.0 | 0.00 | 0.00 | 0.00 | 43 | 1016.5 |
| 20260830214731 | 97 | 185 | 5.0 | 6.0 | 0.00 | 0.00 | 0.00 | 43 | 1016.3 |
| 20260830214231 | 97 | 151 | 4.0 | 5.0 | 0.00 | 0.00 | 0.00 | 44 | 1016.5 |
| 20260830213730 | 97 | 162 | 3.0 | 3.0 | 0.00 | 0.00 | 0.00 | 44 | 1016.5 |
| 20260830213226 | 97 | 207 | 3.0 | 5.0 | 0.00 | 0.00 | 0.00 | 44 | 1016.8 |
| 20260830212721 | 97 | 196 | 3.0 | 5.0 | 0.00 | 0.00 | 0.00 | 44 | 1016.6 |
| 20260830212217 | 96 | 185 | 4.0 | 5.0 | 0.00 | 0.00 | 0.00 | 47 | 1016.8 |
| 20260830211712 | 94 | 145 | 4.0 | 5.0 | 0.00 | 0.00 | 0.00 | 48 | 1016.8 |
| 20260830211210 | 96 | 165 | 5.0 | 7.0 | 0.00 | 0.00 | 0.00 | 48 | 1017.1 |
| 20260830210707 | 97 | 209 | 3.0 | 5.0 | 0.00 | 0.00 | 0.00 | 46 | 1017.3 |
| 20260830210206 | 97 | 194 | 5.0 | 6.0 | 0.00 | 0.00 | 0.00 | 47 | 1017.1 |
| 20260830205703 | 97 | 178 | 3.0 | 5.0 | 0.00 | 0.00 | 0.00 | 45 | 1017.4 |
| 20260830205158 | 97 | 224 | 2.0 | 3.0 | 0.00 | 0.00 | 0.00 | 46 | 1017.2 |
| 20260830204658 | 97 | 256 | 1.0 | 1.0 | 0.00 | 0.00 | 0.00 | 46 | 1017.4 |
| 20260830204157 | 98 | 166 | 4.0 | 5.0 | 0.00 | 0.00 | 0.00 | 45 | 1017.9 |
| 20260830203654 | 98 | 164 | 5.0 | 6.0 | 0.00 | 0.00 | 0.00 | 45 | 1017.8 |
| 20260830203149 | 97 | 220 | 0.0 | 1.0 | 0.00 | 0.00 | 0.00 | 50 | 1017.5 |
| 20260830202648 | 97 | 134 | 5.0 | 7.0 | 0.00 | 0.00 | 0.00 | 45 | 1017.8 |
| 20260830202143 | 97 | 157 | 5.0 | 7.0 | 0.00 | 0.00 | 0.00 | 46 | 1017.7 |
| 20260830201643 | 96 | 154 | 5.0 | 6.0 | 0.00 | 0.00 | 0.00 | 47 | 1017.8 |
| 20260830201139 | 96 | 213 | 6.0 | 10.0 | 0.00 | 0.00 | 0.00 | 47 | 1018.0 |
| 20260830200634 | 97 | 192 | 5.0 | 6.0 | 0.00 | 0.00 | 0.00 | 47 | 1017.8 |
| 20260830200133 | 98 | 189 | 4.0 | 6.0 | 0.00 | 0.00 | 0.00 | 46 | 1018.1 |
| 20260830195629 | 97 | 124 | 3.0 | 5.0 | 0.00 | 0.00 | 0.00 | 47 | 1017.9 |
| 20260830195126 | 96 | 221 | 3.0 | 6.0 | 0.00 | 0.00 | 0.00 | 48 | 1018.4 |
| 20260830194621 | 97 | 135 | 4.0 | 5.0 | 0.00 | 0.00 | 0.00 | 47 | 1018.3 |
| 20260830194120 | 96 | 217 | 0.0 | 1.0 | 0.00 | 0.00 | 0.00 | 50 | 1018.4 |
| 20260830193620 | 96 | 191 | 3.0 | 5.0 | 0.00 | 0.00 | 0.00 | 50 | 1018.5 |
| 20260830193115 | 97 | 216 | 1.0 | 2.0 | 0.00 | 0.00 | 0.00 | 49 | 1018.8 |
| 20260830192611 | 97 | 88 | 3.0 | 5.0 | 0.00 | 0.00 | 0.00 | 49 | 1018.7 |
| 20260830192110 | 95 | 174 | 4.0 | 5.0 | 0.00 | 0.00 | 0.00 | 52 | 1018.8 |
| 20260830191606 | 96 | 125 | 5.0 | 7.0 | 0.00 | 0.00 | 0.00 | 50 | 1018.7 |
| 20260830191102 | 96 | 210 | 6.0 | 8.0 | 0.00 | 0.00 | 0.00 | 50 | 1018.9 |
| 20260830190557 | 96 | 198 | 3.0 | 5.0 | 0.00 | 0.00 | 0.00 | 49 | 1019.1 |
| 20260830190052 | 96 | 206 | 7.0 | 9.0 | 0.00 | 0.00 | 0.00 | 48 | 1019.1 |
| 20260830185545 | 95 | 301 | 1.0 | 1.0 | 0.00 | 0.00 | 0.00 | 51 | 1019.1 |
| 20260830185041 | 95 | 194 | 2.0 | 3.0 | 0.00 | 0.00 | 0.00 | 51 | 1019.2 |
| 20260830184540 | 96 | 242 | 2.0 | 2.0 | 0.00 | 0.00 | 0.00 | 51 | 1019.2 |
| 20260830184034 | 94 | 227 | 4.0 | 6.0 | 0.00 | 0.00 | 0.00 | 54 | 1019.2 |
| 20260830183529 | 95 | 232 | 0.0 | 1.0 | 0.00 | 0.00 | 0.00 | 57 | 1019.4 |
| 20260830183025 | 94 | 217 | 2.0 | 3.0 | 0.00 | 0.00 | 0.00 | 53 | 1019.3 |
| 20260830182520 | 94 | 187 | 2.0 | 2.0 | 0.00 | 0.00 | 0.00 | 55 | 1019.5 |
| 20260830182016 | 92 | 205 | 4.0 | 7.0 | 0.00 | 0.00 | 0.00 | 55 | 1019.5 |
| 20260830181512 | 93 | 206 | 2.0 | 2.0 | 0.00 | 0.00 | 0.00 | 55 | 1019.7 |
| 20260830181011 | 94 | 201 | 1.0 | 2.0 | 0.00 | 0.00 | 0.00 | 54 | 1019.7 |
| 20260830180506 | 93 | 163 | 5.0 | 6.0 | 0.00 | 0.00 | 0.00 | 55 | 1019.6 |
| 20260830180004 | 93 | 216 | 5.0 | 6.0 | 0.00 | 0.00 | 0.00 | 56 | 1019.9 |
| 20260830175459 | 94 | 215 | 0.0 | 0.0 | 0.00 | 0.00 | 0.00 | 56 | 1020.3 |
| 20260830174954 | 93 | 213 | 1.0 | 3.0 | 0.00 | 0.00 | 0.00 | 55 | 1020.3 |
| 20260830174450 | 94 | 215 | 0.0 | 0.0 | 0.00 | 0.00 | 0.00 | 58 | 1020.6 |
| 20260830173949 | 94 | 217 | 3.0 | 5.0 | 0.00 | 0.00 | 0.00 | 54 | 1020.2 |
| 20260830173446 | 95 | 133 | 4.0 | 6.0 | 0.00 | 0.00 | 0.00 | 54 | 1020.4 |
| 20260830172941 | 93 | 286 | 1.0 | 1.0 | 0.00 | 0.00 | 0.00 | 58 | 1020.5 |
| 20260830172437 | 92 | 206 | 0.0 | 1.0 | 0.00 | 0.00 | 0.00 | 59 | 1020.7 |
| 20260830171933 | 92 | 178 | 1.0 | 2.0 | 0.00 | 0.00 | 0.00 | 59 | 1020.7 |
| 20260830171428 | 93 | 223 | 1.0 | 2.0 | 0.00 | 0.00 | 0.00 | 57 | 1020.6 |
| 20260830170928 | 93 | 149 | 2.0 | 5.0 | 0.00 | 0.00 | 0.00 | 58 | 1020.7 |
| 20260830170428 | 93 | 206 | 5.0 | 6.0 | 0.00 | 0.00 | 0.00 | 55 | 1020.9 |
| 20260830165926 | 92 | 194 | 3.0 | 3.0 | 0.00 | 0.00 | 0.00 | 56 | 1020.6 |
| 20260830165423 | 93 | 121 | 5.0 | 6.0 | 0.00 | 0.00 | 0.00 | 56 | 1020.9 |
| 20260830164919 | 92 | 239 | 1.0 | 2.0 | 0.00 | 0.00 | 0.00 | 60 | 1021.0 |
| 20260830164414 | 92 | 225 | 0.0 | 0.0 | 0.00 | 0.00 | 0.00 | 62 | 1021.0 |
| 20260830163911 | 92 | 26 | 3.0 | 3.0 | 0.00 | 0.00 | 0.00 | 58 | 1021.0 |
| 20260830163406 | 92 | 219 | 1.0 | 1.0 | 0.00 | 0.00 | 0.00 | 63 | 1021.0 |
| 20260830162906 | 92 | 323 | 2.0 | 3.0 | 0.00 | 0.00 | 0.00 | 61 | 1021.1 |
| 20260830162402 | 90 | 225 | 0.0 | 0.0 | 0.00 | 0.00 | 0.00 | 64 | 1021.2 |
| 20260830161857 | 91 | 143 | 3.0 | 3.0 | 0.00 | 0.00 | 0.00 | 60 | 1020.8 |
| 20260830161356 | 90 | 205 | 0.0 | 0.0 | 0.00 | 0.00 | 0.00 | 67 | 1021.1 |
| 20260830160852 | 91 | 193 | 3.0 | 6.0 | 0.00 | 0.00 | 0.00 | 63 | 1021.1 |
| 20260830160342 | 91 | 164 | 1.0 | 1.0 | 0.00 | 0.00 | 0.00 | 62 | 1021.0 |
| 20260830155837 | 91 | 225 | 0.0 | 0.0 | 0.00 | 0.00 | 0.00 | 67 | 1021.1 |
| 20260830155333 | 90 | 169 | 5.0 | 6.0 | 0.00 | 0.00 | 0.00 | 63 | 1020.9 |
| 20260830154833 | 89 | 219 | 0.0 | 0.0 | 0.00 | 0.00 | 0.00 | 68 | 1020.8 |
| 20260830154329 | 90 | 181 | 2.0 | 3.0 | 0.00 | 0.00 | 0.00 | 66 | 1021.0 |
| 20260830153826 | 89 | 236 | 1.0 | 2.0 | 0.00 | 0.00 | 0.00 | 68 | 1020.8 |
| 20260830153321 | 89 | 181 | 3.0 | 3.0 | 0.00 | 0.00 | 0.00 | 68 | 1020.8 |
| 20260830152820 | 88 | 198 | 0.0 | 0.0 | 0.00 | 0.00 | 0.00 | 70 | 1021.0 |
| 20260830152314 | 89 | 153 | 3.0 | 3.0 | 0.00 | 0.00 | 0.00 | 69 | 1020.9 |
| 20260830151809 | 88 | 199 | 0.0 | 1.0 | 0.00 | 0.00 | 0.00 | 70 | 1020.8 |
| 20260830151308 | 89 | 258 | 3.0 | 5.0 | 0.00 | 0.00 | 0.00 | 69 | 1021.1 |
| 20260830150803 | 88 | 185 | 4.0 | 6.0 | 0.00 | 0.00 | 0.00 | 70 | 1020.8 |
| 20260830150302 | 88 | 236 | 2.0 | 3.0 | 0.00 | 0.00 | 0.00 | 74 | 1020.7 |
| 20260830145757 | 87 | 271 | 1.0 | 1.0 | 0.00 | 0.00 | 0.00 | 73 | 1020.9 |
| 20260830145253 | 86 | 221 | 1.0 | 2.0 | 0.00 | 0.00 | 0.00 | 76 | 1020.8 |
| 20260830144748 | 86 | 177 | 3.0 | 6.0 | 0.00 | 0.00 | 0.00 | 74 | 1020.9 |
| 20260830144243 | 86 | 194 | 0.0 | 1.0 | 0.00 | 0.00 | 0.00 | 75 | 1020.8 |
| 20260830143740 | 85 | 206 | 3.0 | 5.0 | 0.00 | 0.00 | 0.00 | 76 | 1020.9 |
| 20260830143238 | 85 | 206 | 1.0 | 1.0 | 0.00 | 0.00 | 0.00 | 77 | 1021.0 |
| 20260830142733 | 85 | 175 | 3.0 | 5.0 | 0.00 | 0.00 | 0.00 | 77 | 1021.1 |
| 20260830142228 | 85 | 206 | 2.0 | 3.0 | 0.00 | 0.00 | 0.00 | 78 | 1020.9 |
| 20260830141723 | 84 | 223 | 1.0 | 2.0 | 0.00 | 0.00 | 0.00 | 80 | 1020.9 |
| 20260830141219 | 84 | 146 | 2.0 | 3.0 | 0.00 | 0.00 | 0.00 | 79 | 1020.8 |
| 20260830140713 | 84 | 201 | 2.0 | 3.0 | 0.00 | 0.00 | 0.00 | 79 | 1020.7 |
| 20260830140208 | 84 | 182 | 2.0 | 2.0 | 0.00 | 0.00 | 0.00 | 79 | 1020.8 |
| 20260830135708 | 83 | 209 | 1.0 | 1.0 | 0.00 | 0.00 | 0.00 | 82 | 1020.7 |
| 20260830135204 | 83 | 158 | 1.0 | 2.0 | 0.00 | 0.00 | 0.00 | 80 | 1020.5 |
| 20260830134700 | 82 | 209 | 1.0 | 1.0 | 0.00 | 0.00 | 0.00 | 83 | 1020.8 |
| 20260830134155 | 81 | 159 | 2.0 | 2.0 | 0.00 | 0.00 | 0.00 | 84 | 1020.6 |
| 20260830133650 | 81 | 232 | 0.0 | 0.0 | 0.00 | 0.00 | 0.00 | 85 | 1020.7 |
| 20260830133146 | 80 | 217 | 0.0 | 1.0 | 0.00 | 0.00 | 0.00 | 85 | 1020.4 |
| 20260830132642 | 80 | 167 | 1.0 | 2.0 | 0.00 | 0.00 | 0.00 | 87 | 1020.5 |
| 20260830132137 | 79 | 207 | 1.0 | 1.0 | 0.00 | 0.00 | 0.00 | 88 | 1020.5 |
| 20260830131636 | 78 | 204 | 0.0 | 0.0 | 0.00 | 0.00 | 0.00 | 90 | 1020.5 |
| 20260830131136 | 77 | 203 | 1.0 | 1.0 | 0.00 | 0.00 | 0.00 | 91 | 1020.3 |
| 20260830130631 | 77 | 205 | 1.0 | 1.0 | 0.00 | 0.00 | 0.00 | 93 | 1020.6 |
| 20260830130126 | 75 | 203 | 1.0 | 1.0 | 0.00 | 0.00 | 0.00 | 95 | 1020.6 |
| 20260830125625 | 75 | 196 | 1.0 | 1.0 | 0.00 | 0.00 | 0.00 | 96 | 1020.4 |
| 20260830125120 | 75 | 205 | 0.0 | 0.0 | 0.00 | 0.00 | 0.00 | 96 | 1020.3 |
| 20260830124618 | 74 | 209 | 1.0 | 2.0 | 0.00 | 0.00 | 0.00 | 97 | 1020.5 |
| 20260830124114 | 74 | 208 | 0.0 | 0.0 | 0.00 | 0.00 | 0.00 | 97 | 1020.2 |
| 20260830123611 | 74 | 218 | 0.0 | 0.0 | 0.00 | 0.00 | 0.00 | 98 | 1020.3 |
| 20260830123106 | 73 | 227 | 0.0 | 0.0 | 0.00 | 0.00 | 0.00 | 97 | 1020.4 |
| 20260830122603 | 73 | 228 | 0.0 | 0.0 | 0.00 | 0.00 | 0.00 | 97 | 1020.1 |
| 20260830122059 | 74 | 228 | 0.0 | 0.0 | 0.00 | 0.00 | 0.00 | 97 | 1020.0 |
| 20260830121554 | 74 | 228 | 0.0 | 0.0 | 0.00 | 0.00 | 0.00 | 97 | 1019.9 |
| 20260830121053 | 74 | 227 | 0.0 | 0.0 | 0.00 | 0.00 | 0.00 | 97 | 1020.1 |
| 20260830120549 | 74 | 228 | 0.0 | 0.0 | 0.00 | 0.00 | 0.00 | 96 | 1019.9 |
| 20260830120046 | 74 | 227 | 0.0 | 0.0 | 0.00 | 0.00 | 0.00 | 96 | 1019.8 |
| 20260830115541 | 74 | 227 | 0.0 | 0.0 | 0.00 | 0.00 | 0.00 | 96 | 1020.0 |
| 20260830115036 | 74 | 227 | 0.0 | 0.0 | 0.00 | 0.00 | 0.00 | 95 | 1019.9 |
| 20260830114533 | 74 | 227 | 0.0 | 0.0 | 0.00 | 0.00 | 0.00 | 95 | 1019.9 |
| 20260830114033 | 74 | 214 | 0.0 | 0.0 | 0.00 | 0.00 | 0.00 | 95 | 1019.8 |
| 20260830113527 | 74 | 213 | 0.0 | 0.0 | 0.00 | 0.00 | 0.00 | 94 | 1019.9 |
| 20260830113023 | 74 | 227 | 0.0 | 0.0 | 0.00 | 0.00 | 0.00 | 94 | 1019.7 |
| 20260830112519 | 74 | 227 | 0.0 | 0.0 | 0.00 | 0.00 | 0.00 | 94 | 1019.8 |
| 20260830112015 | 75 | 227 | 0.0 | 0.0 | 0.00 | 0.00 | 0.00 | 93 | 1019.5 |
| 20260830111511 | 75 | 228 | 0.0 | 0.0 | 0.00 | 0.00 | 0.00 | 93 | 1019.6 |
| 20260830111007 | 75 | 227 | 0.0 | 0.0 | 0.00 | 0.00 | 0.00 | 93 | 1019.7 |
| 20260830110506 | 75 | 228 | 0.0 | 0.0 | 0.00 | 0.00 | 0.00 | 92 | 1019.5 |
| 20260830110001 | 75 | 227 | 0.0 | 0.0 | 0.00 | 0.00 | 0.00 | 92 | 1019.5 |
| 20260830105457 | 75 | 231 | 0.0 | 0.0 | 0.00 | 0.00 | 0.00 | 91 | 1019.3 |
| 20260830104953 | 75 | 231 | 0.0 | 0.0 | 0.00 | 0.00 | 0.00 | 91 | 1019.5 |
| 20260830104449 | 76 | 228 | 0.0 | 0.0 | 0.00 | 0.00 | 0.00 | 91 | 1019.6 |
| 20260830103944 | 76 | 232 | 0.0 | 0.0 | 0.00 | 0.00 | 0.00 | 90 | 1019.4 |
| 20260830103439 | 76 | 227 | 0.0 | 0.0 | 0.00 | 0.00 | 0.00 | 90 | 1019.4 |
| 20260830102937 | 76 | 227 | 0.0 | 0.0 | 0.00 | 0.00 | 0.00 | 90 | 1019.3 |
| 20260830102433 | 76 | 228 | 0.0 | 0.0 | 0.00 | 0.00 | 0.00 | 89 | 1019.5 |
| 20260830101929 | 76 | 231 | 0.0 | 0.0 | 0.00 | 0.00 | 0.00 | 89 | 1019.5 |
| 20260830101425 | 76 | 227 | 0.0 | 0.0 | 0.00 | 0.00 | 0.00 | 88 | 1019.4 |
| 20260830100924 | 77 | 230 | 0.0 | 0.0 | 0.00 | 0.00 | 0.00 | 88 | 1019.3 |
| 20260830100423 | 77 | 218 | 0.0 | 0.0 | 0.00 | 0.00 | 0.00 | 88 | 1019.4 |
| 20260830095922 | 77 | 225 | 0.0 | 0.0 | 0.00 | 0.00 | 0.00 | 87 | 1019.4 |